Location: ?????????
(54.7630°N, 39.4991°E)
Time: 18:38:03
(UTC+00:00)

USA 234 - Pass Details

Date: 14 April 2026
Orbit: 1102 x 1106 km, 123.0° (Epoch: 4 January)

Event Time Altitude Azimuth Distance (km) Brightness Sun altitude
Rises 17:11:12 0° 62° (ENE) 3,929 5.8 -7.1°
Reaches altitude 10° 17:13:47 10° 68° (ENE) 2,969 5.2 -7.5°
Maximum altitude 17:20:10 52° 144° (SE) 1,345 3.4 -8.3°
Drops below altitude 10° 17:26:32 10° 220° (SW) 2,960 5.6 -9.1°
Sets 17:29:05 0° 225° (SW) 3,916 6.3 -9.4°
